Location: Baranów
(51.5571°N, 22.1368°E)
Time: 17:19:16
(UTC+01:00)

ISS - Visible Passes

Search period start: 16 January 2019 00:00
Search period end: 26 January 2019 00:00
Orbit: 404 x 407 km, 51.6° (Epoch: 17 January)

Date Brightness Start Highest point End Pass type
(mag) Time Alt. Az. Time Alt. Az. Time Alt. Az.
23 Jan -1.3 18:37:16 10° SSW 18:38:06 15° SSW 18:38:06 15° SSW visible
24 Jan -2.0 17:46:00 10° S 17:48:19 18° SE 17:48:29 18° SE visible
24 Jan -0.4 19:21:07 10° WSW 19:21:11 10° WSW 19:21:11 10° WSW visible
25 Jan -1.4 16:55:23 10° SSE 16:56:36 12° SE 16:57:50 10° ESE visible
25 Jan -2.5 18:29:19 10° SW 18:31:29 33° SSW 18:31:29 33° SSW visible
